Weather History for Cancun, Mexico

Change the Weather History Date:

Saturday, May 18, 2013

  Actual Average Record
Temperature  
Mean Temperature 82 °F -  
Max Temperature 86 °F 88 °F 93 °F (1999)
Min Temperature 78 °F 72 °F 66 °F (2006)
Cooling Degree Days 17    
Growing Degree Days 32 (Base 50)    
Moisture  
Dew Point 74 °F    
Average Humidity 77    
Maximum Humidity 89    
Minimum Humidity 66    
Precipitation  
Precipitation 0.00 in - - ()
Sea Level Pressure  
Sea Level Pressure 29.98 in    
Wind  
Wind Speed 9 mph ()    
Max Wind Speed 21 mph    
Max Gust Speed -    
Visibility 7.0 miles    
Events      
Averages and records for this station are not official NWS values.
T = Trace of Precipitation, MM = Missing Value Source: Averaged Metar Reports

Daily Weather History Graph

Daily Weather History Graph

Search for Another Location

Airport:

Trip Planner

Search our weather history database for the weather conditions in past years. The results will help you decide how hot, cold, wet, or windy it might be!

Date:

Astronomy

May. 18, 2013 Rise Set
Actual Time 6:08 AM CDT 7:19 PM CDT
Civil Twilight 5:44 AM CDT 7:43 PM CDT
Nautical Twilight 5:16 AM CDT 8:12 PM CDT
Astronomical Twilight 4:46 AM CDT 8:41 PM CDT
Moon 1:11 PM CDT (5/18) 1:08 AM CDT (5/18)
Length of Visible Light 13h 58m
Length of Day
13h 11m
First Quarter, 55% of the Moon is Illuminated
May 18
First Quarter
May 24
Full
May 31
Last Quarter
Jun 8
New
Jun 16
First Quarter

Hourly Weather History & Observations

Time (CDT) Temp. Heat Index Dew Point Humidity Pressure Visibility Wind Dir Wind Speed Gust Speed Precip Events Conditions
12:45 AM 80.6 °F 85.4 °F 73.4 °F 79% 29.97 in 7.0 mi SE 9.2 mph - N/A   Clear
1:44 AM 80.6 °F 85.4 °F 73.4 °F 79% 29.97 in 7.0 mi ESE 9.2 mph - N/A   Partly Cloudy
2:43 AM 80.6 °F 85.4 °F 73.4 °F 79% 29.96 in 7.0 mi ESE 8.1 mph - N/A   Scattered Clouds
3:46 AM 78.8 °F - 73.4 °F 83% 29.93 in 7.0 mi ESE 5.8 mph - N/A   Scattered Clouds
4:45 AM 78.8 °F - 73.4 °F 83% 29.96 in 7.0 mi SE 5.8 mph - N/A   Scattered Clouds
5:44 AM 78.8 °F - 75.2 °F 89% 29.98 in 7.0 mi East 5.8 mph - N/A   Scattered Clouds
6:43 AM 80.6 °F 86.2 °F 75.2 °F 84% 29.96 in 7.0 mi East 6.9 mph - N/A   Scattered Clouds
7:41 AM 82.4 °F 89.5 °F 75.2 °F 79% 30.00 in 7.0 mi East 10.4 mph - N/A   Mostly Cloudy
8:40 AM 84.2 °F 92.3 °F 75.2 °F 74% 30.00 in 7.0 mi East 10.4 mph - N/A   Mostly Cloudy
9:42 AM 84.2 °F 90.9 °F 73.4 °F 70% 30.01 in 7.0 mi ESE 10.4 mph - N/A   Mostly Cloudy
10:43 AM 84.2 °F 92.3 °F 75.2 °F 74% 30.01 in 7.0 mi East 10.4 mph - N/A   Mostly Cloudy
11:41 AM 84.2 °F 92.3 °F 75.2 °F 74% 30.01 in 7.0 mi East 9.2 mph - N/A   Mostly Cloudy
12:44 PM 86.0 °F 95.1 °F 75.2 °F 70% 30.00 in 7.0 mi ESE 15.0 mph - N/A   Mostly Cloudy
1:40 PM 86.0 °F 93.4 °F 73.4 °F 66% 29.99 in 7.0 mi East 16.1 mph - N/A   Mostly Cloudy
2:43 PM 86.0 °F 95.1 °F 75.2 °F 70% 29.96 in 7.0 mi SE 17.3 mph - N/A   Mostly Cloudy
3:40 PM 84.2 °F 92.3 °F 75.2 °F 74% 29.96 in 7.0 mi ESE 15.0 mph - N/A   Mostly Cloudy
4:40 PM 84.2 °F 90.9 °F 73.4 °F 70% 29.94 in 7.0 mi SE 20.7 mph - N/A   Mostly Cloudy
5:41 PM 82.4 °F 88.2 °F 73.4 °F 74% 29.94 in 7.0 mi SE 13.8 mph - N/A   Mostly Cloudy
6:43 PM 80.6 °F 85.4 °F 73.4 °F 79% 29.97 in 7.0 mi SE 13.8 mph - N/A   Mostly Cloudy
7:45 PM 80.6 °F 85.4 °F 73.4 °F 79% 29.97 in 7.0 mi SE 15.0 mph - N/A   Mostly Cloudy
8:41 PM 80.6 °F 85.4 °F 73.4 °F 79% 29.98 in 7.0 mi SE 13.8 mph - N/A   Mostly Cloudy
9:45 PM 80.6 °F 85.4 °F 73.4 °F 79% 29.98 in 7.0 mi ESE 8.1 mph - N/A   Mostly Cloudy
10:42 PM 80.6 °F 86.2 °F 75.2 °F 84% 29.99 in 7.0 mi ESE 8.1 mph - N/A   Scattered Clouds
11:43 PM 80.6 °F 86.2 °F 75.2 °F 84% 29.98 in 7.0 mi ESE 9.2 mph - N/A   Mostly Cloudy